[[{"header":{"parameterUnit":"m.s-1","parameterCategory":1,"la1":30.2991,"la2":30.254,"lo1":-89.0895,"lo2":-89.0444,"dy":0.0017,"dx":0.0017,"nx":28,"ny":28,"refTime":"2024-04-06T03:00:00:Z","depth":0,"parameterNumber":2,"parameterNumberName":"U-component_of_WINDS"},"data":[0,0,0,0,0,0,0,0,0,0,0,0,0,0,0,0,0,0,0,0,0,0,0,0,0,0,0,0,0,0,0,0,0,0,0,0,0,0,0,0,0,0,0,0,0,0,0,0,0,0,0,0,0,0,0,0,0,0,-3.1767,-3.1768,0,-3.1854,-3.1855,-3.1856,-3.1866,-3.1865,-3.1865,-3.1864,-3.1952,-3.1955,-3.1959,0,0,0,0,0,0,0,0,0,0,0,0,0,-3.1612,-3.1614,-3.1767,-3.1768,-3.177,-3.1854,-3.1855,-3.1856,-3.1866,-3.1865,-3.1864,-3.1863,-3.1951,-3.1955,-3.1959,0,0,0,0,0,0,0,0,0,0,0,0,0,-3.1687,-3.1615,-3.1767,-3.1785,-3.1787,-3.1854,-3.1855,-3.1857,-3.1867,-3.1865,-3.1864,-3.1863,-3.195,-3.1955,-3.1959,-3.2014,0,0,-3.1974,-3.1976,0,0,0,0,0,0,0,0,-3.1683,-3.1692,-3.1781,-3.1784,-3.1787,-3.1848,-3.1833,-3.1909,-3.1867,-3.1837,-3.1864,-3.1862,-3.1919,-3.1926,-3.1945,-3.2018,-3.2022,-3.1974,-3.1977,-3.1979,-3.198,0,0,0,0,0,0,0,-3.1677,-3.1689,-3.1802,-3.1782,-3.1786,-3.1789,-3.1798,-3.1847,-3.1884,-3.1839,-3.184,-3.185,-3.192,-3.194,-3.1947,-3.2023,-3.1974,-3.1978,-3.1981,-3.1983,-3.2147,-3.2148,0,0,0,0,0,0,-3.1669,-3.1684,-3.1799,-3.1804,-3.173,-3.1793,-3.1803,-3.183,-3.1883,-3.189,-3.1851,-3.185,-3.1933,-3.1942,-3.195,-3.2018,-3.1979,-3.1984,-3.1986,-3.2145,-3.2147,-3.2148,0,0,0,0,0,0,-3.1665,-3.1679,-3.1795,-3.1745,-3.176,-3.1797,-3.1827,-3.1832,-3.1852,-3.1892,-3.1899,-3.1865,-3.1932,-3.1944,-3.1998,-3.2021,-3.1986,-3.199,-3.2143,-3.2146,-3.2148,-3.2153,0,0,0,0,0,0,-3.1661,-3.1678,-3.1698,-3.1745,-3.1762,-3.1842,-3.1828,-3.1835,-3.1861,-3.186,-3.1907,-3.1914,-3.1932,-3.1991,-3.2003,-3.2027,-3.1994,-3.2141,-3.2144,-3.2147,-3.2151,-3.2155,-3.2159,0,0,0,0,0,-3.1655,-3.1696,-3.1699,-3.1713,-3.1789,-3.1843,-3.1853,-3.1873,-3.1862,-3.1884,-3.191,-3.1912,-3.2017,-3.1997,-3.201,-3.2036,-3.214,-3.2143,-3.2147,-3.2149,-3.2154,-3.2158,0,0,0,0,0,0,-3.1651,-3.1703,-3.1707,-3.1764,-3.1799,-3.1844,-3.1872,-3.1878,-3.1916,-3.1914,-3.1938,-3.1949,-3.2002,-3.2025,-3.2001,-3.2092,-3.2077,-3.2084,-3.2075,-3.208,-3.2084,-3.2076,-3.1998,0,0,0,0,0,-3.1657,-3.1696,-3.1739,-3.1786,-3.1803,-3.1835,-3.1859,-3.1871,-3.1909,-3.1923,-3.1953,-3.1989,-3.203,-3.2057,-3.2097,-3.2155,-3.2165,-3.2179,-3.2183,-3.2186,-3.2191,-3.2223,-3.223,-3.216,-3.216,-3.2159,0,0,-3.1669,-3.1702,-3.1725,-3.1786,-3.1814,-3.1854,-3.1847,-3.189,-3.1919,-3.193,-3.1983,-3.2006,-3.2048,-3.2105,-3.2131,-3.2125,-3.2213,-3.219,-3.2192,-3.2195,-3.2227,-3.2234,-3.224,-3.2162,-3.2161,-3.2161,0,0,-3.1711,-3.1741,-3.1782,-3.1812,-3.1855,-3.1876,-3.1886,-3.1931,-3.1947,-3.2001,-3.201,-3.2046,-3.2117,-3.2146,-3.217,-3.2226,-3.2229,-3.2238,-3.2258,-3.2289,-3.2295,-3.23,-3.2319,-3.2325,-3.2243,-3.2243,-3.2243,0,-3.1721,-3.1781,-3.1803,-3.1846,-3.1872,-3.1884,-3.1927,-3.1954,-3.2008,-3.2026,-3.2019,-3.2108,-3.2137,-3.2201,-3.2214,-3.2234,-3.2246,-3.2232,-3.2292,-3.2297,-3.2302,-3.2321,-3.2328,-3.2244,-3.2244,-3.2243,-3.2243,0,-3.1791,-3.1833,-3.1861,-3.1914,-3.1943,-3.1986,-3.2014,-3.2042,-3.2053,-3.2075,-3.213,-3.2166,-3.2213,-3.223,-3.224,-3.2295,-3.229,-3.2287,-3.2273,-3.2309,-3.2327,-3.2334,-3.2245,-3.2244,-3.2244,-3.2244,0,0,-3.1831,-3.1896,-3.1906,-3.193,-3.1979,-3.2012,-3.2056,-3.2102,-3.2125,-3.2163,-3.22,-3.226,-3.2258,-3.2286,-3.23,-3.2328,-3.2369,-3.2322,-3.2324,-3.2329,-3.2431,-3.2432,-3.244,-3.2373,-3.2374,-3.2376,-3.2427,0,-3.1878,-3.1955,-3.1977,-3.2042,-3.2081,-3.2094,-3.2132,-3.2166,-3.2189,-3.2225,-3.225,-3.2292,-3.2286,-3.2303,-3.2331,-3.2358,-3.239,-3.2355,-3.2407,-3.2408,-3.2394,-3.2449,-3.245,-3.2496,-3.2435,-3.2436,-3.2437,0,-3.1943,-3.1982,-3.2051,-3.2096,-3.2113,-3.2147,-3.2191,-3.2226,-3.2267,-3.2281,-3.2312,-3.2325,-3.2371,-3.2356,-3.242,-3.2395,-3.2418,-3.2435,-3.2437,-3.2442,-3.2423,-3.2453,-3.2512,-3.2519,-3.2448,-3.2447,-3.2446,0,-3.1964,-3.2034,-3.2084,-3.2105,-3.2159,-3.2182,-3.2206,-3.2245,-3.2272,-3.2311,-3.2329,-3.2373,-3.2397,-3.2432,-3.2456,-3.2443,-3.2518,-3.2505,-3.2531,-3.253,-3.2544,-3.2543,-3.2606,-3.2561,-3.2561,-3.2561,-3.2561,0,-3.2013,-3.2055,-3.2094,-3.2125,-3.2172,-3.2197,-3.2243,-3.2268,-3.2303,-3.2339,-3.2353,-3.2387,-3.2418,-3.2455,-3.2475,-3.2525,-3.2536,-3.2548,-3.2553,-3.2546,-3.2544,-3.256,-3.2557,-3.2563,-3.2563,-3.2562,-3.2562,0,-3.2044,-3.2072,-3.2128,-3.2175,-3.2188,-3.2221,-3.2261,-3.2292,-3.2315,-3.236,-3.2373,-3.2409,-3.2455,-3.2483,-3.254,-3.2554,-3.2608,-3.2612,-3.2594,-3.2596,-3.262,-3.2617,-3.2694,-3.2705,-3.2654,-3.2655,-3.2655,0,-3.2073,-3.2105,-3.2156,-3.2181,-3.2205,-3.2246,-3.2273,-3.23,-3.2328,-3.2377,-3.2402,-3.2448,-3.2486,-3.2558,-3.259,-3.2635,-3.2639,-3.2663,-3.2646,-3.2638,-3.2638,-3.2635,-3.2638,-3.2665,-3.2666,-3.2666,-3.2666,0,-3.2121,-3.2134,-3.2173,-3.2217,-3.225,-3.2286,-3.2322,-3.2342,-3.2375,-3.2406,-3.2453,-3.2483,-3.2542,-3.2588,-3.2635,-3.266,-3.2669,-3.2672,-3.268,-3.2673,-3.2661,-3.2667,-3.2601,-3.267,-3.2669,-3.2669,-3.2669,-3.2669,-3.2151,-3.218,-3.2221,-3.2264,-3.2294,-3.2328,-3.2359,-3.2387,-3.2426,-3.2476,-3.249,-3.2538,-3.2579,-3.2643,-3.2669,-3.2708,-3.2705,-3.2716,-3.2719,-3.2721,-3.2721,-3.2656,-3.2717,-3.2717,-3.2717,-3.2717,-3.2717,0,-3.2199,-3.2226,-3.2266,-3.2316,-3.235,-3.2356,-3.2397,-3.2425,-3.2468,-3.2505,-3.2542,-3.2596,-3.2641,-3.2677,-3.2723,-3.2747,-3.2752,-3.2758,-3.2756,-3.2762,-3.2722,-3.271,-3.2753,-3.2753,-3.2753,-3.2753,-3.2753,-3.2753,-3.2228,-3.2278,-3.2295,-3.236,-3.2387,-3.2435,-3.2457,-3.2489,-3.2518,-3.2578,-3.2615,-3.2638,-3.2675,-3.2724,-3.2766,-3.2775,-3.2791,-3.2796,-3.2806,-3.2768,-3.2764,-3.276,-3.2749,-3.28,-3.28,-3.2842,-3.2843,-3.2843]},{"header":{"parameterUnit":"m.s-1","parameterCategory":1,"la1":30.2991,"la2":30.254,"lo1":-89.0895,"lo2":-89.0444,"dy":0.0017,"dx":0.0017,"nx":28,"ny":28,"refTime":"2024-04-06T03:00:00:Z","depth":0,"parameterNumber":3,"parameterNumberName":"V-component_of_WINDS"},"data":[0,0,0,0,0,0,0,0,0,0,0,0,0,0,0,0,0,0,0,0,0,0,0,0,0,0,0,0,0,0,0,0,0,0,0,0,0,0,0,0,0,0,0,0,0,0,0,0,0,0,0,0,0,0,0,0,0,0,4.9433,4.9432,0,4.9421,4.9421,4.9421,4.9386,4.9385,4.9384,4.9383,4.9371,4.9371,4.9372,0,0,0,0,0,0,0,0,0,0,0,0,0,4.9425,4.9426,4.9433,4.9432,4.9432,4.9421,4.9421,4.942,4.9386,4.9385,4.9384,4.9383,4.9371,4.9371,4.9372,0,0,0,0,0,0,0,0,0,0,0,0,0,4.9423,4.9426,4.9433,4.9414,4.9412,4.9421,4.9421,4.942,4.9386,4.9385,4.9384,4.9383,4.9371,4.9371,4.9372,4.9398,0,0,4.9374,4.9374,0,0,0,0,0,0,0,0,4.9423,4.9423,4.9417,4.9415,4.9413,4.9404,4.9413,4.9413,4.9386,4.9396,4.9383,4.9382,4.9383,4.9382,4.9383,4.9398,4.9397,4.9374,4.9374,4.9374,4.9374,0,0,0,0,0,0,0,4.9423,4.9423,4.9428,4.9416,4.9414,4.9406,4.9404,4.9413,4.9396,4.9395,4.9392,4.9391,4.9381,4.9382,4.9382,4.9397,4.9374,4.9374,4.9374,4.9375,4.9434,4.9435,0,0,0,0,0,0,4.9426,4.9424,4.9428,4.9428,4.9415,4.9407,4.9405,4.9408,4.9396,4.9393,4.9392,4.939,4.9382,4.9381,4.9381,4.9412,4.9374,4.9375,4.9375,4.9433,4.9434,4.9436,0,0,0,0,0,0,4.9426,4.9427,4.9429,4.9425,4.9424,4.9408,4.9411,4.9408,4.9409,4.9394,4.939,4.9396,4.9381,4.9381,4.9395,4.9411,4.9375,4.9376,4.9431,4.9433,4.9435,4.9473,0,0,0,0,0,0,4.9426,4.9427,4.9437,4.9425,4.9425,4.9442,4.9412,4.9409,4.941,4.9406,4.9396,4.9394,4.938,4.9394,4.9395,4.9411,4.9376,4.943,4.9432,4.9435,4.947,4.9476,4.9481,0,0,0,0,0,4.9426,4.9447,4.9437,4.9438,4.9437,4.9443,4.9443,4.9426,4.9411,4.9421,4.9412,4.9394,4.9409,4.9396,4.9397,4.9413,4.9429,4.9432,4.9434,4.9468,4.9475,4.9481,0,0,0,0,0,0,4.946,4.9446,4.9434,4.9453,4.945,4.9437,4.9449,4.9434,4.9435,4.9432,4.9412,4.941,4.9427,4.9421,4.9406,4.9439,4.9416,4.9419,4.9441,4.9448,4.9453,4.9454,4.9376,0,0,0,0,0,4.947,4.9477,4.9464,4.9481,4.948,4.9465,4.9467,4.9455,4.9451,4.9449,4.9441,4.9437,4.9441,4.9444,4.9447,4.947,4.9467,4.9482,4.9487,4.9491,4.9494,4.9506,4.9513,4.9445,4.9445,4.9445,0,0,4.9491,4.9484,4.9489,4.9488,4.9484,4.9492,4.9464,4.9473,4.9478,4.945,4.9463,4.9457,4.9452,4.9471,4.9478,4.9467,4.9513,4.9495,4.9499,4.9499,4.951,4.9516,4.9522,4.9447,4.9446,4.9446,0,0,4.9532,4.9527,4.9541,4.9538,4.9533,4.9523,4.9526,4.9517,4.9512,4.9524,4.9504,4.951,4.9517,4.9515,4.9514,4.9556,4.954,4.9557,4.9585,4.9597,4.9602,4.9607,4.9622,4.9628,4.956,4.956,4.956,0,4.9558,4.9568,4.9551,4.9561,4.9562,4.9538,4.9553,4.955,4.9546,4.9547,4.9534,4.9544,4.9538,4.9556,4.9567,4.9567,4.9571,4.9558,4.9603,4.9607,4.9611,4.9626,4.9631,4.9562,4.9562,4.9562,4.9562,0,4.96,4.9608,4.9621,4.9618,4.962,4.9632,4.9617,4.9621,4.961,4.9601,4.9615,4.9608,4.9609,4.9613,4.9601,4.9629,4.9622,4.9607,4.9583,4.962,4.9633,4.9639,4.9566,4.9565,4.9564,4.9564,0,0,4.9662,4.965,4.9655,4.9654,4.9647,4.9652,4.9664,4.9666,4.967,4.9668,4.9678,4.9685,4.9671,4.9671,4.9659,4.9669,4.9703,4.9652,4.9652,4.9662,4.9734,4.9746,4.9753,4.9693,4.9694,4.9694,4.9735,0,4.9701,4.972,4.9706,4.9728,4.9735,4.9713,4.9724,4.9721,4.9713,4.9718,4.971,4.9716,4.9696,4.9696,4.9705,4.9697,4.9717,4.9694,4.9702,4.9702,4.9704,4.976,4.9772,4.981,4.974,4.9741,4.9741,0,4.9749,4.975,4.9773,4.9765,4.9767,4.9777,4.9778,4.9783,4.9779,4.9773,4.9774,4.9759,4.977,4.9748,4.9764,4.9748,4.9751,4.9747,4.9748,4.9748,4.9724,4.9761,4.9822,4.9828,4.9749,4.9749,4.9748,0,4.9792,4.9799,4.9814,4.9813,4.9804,4.9812,4.9809,4.9804,4.9806,4.9807,4.9808,4.9811,4.9812,4.9814,4.98,4.9785,4.9818,4.9795,4.9814,4.9814,4.9821,4.9821,4.9884,4.9823,4.9823,4.9823,4.9823,0,4.9837,4.9852,4.9833,4.9842,4.9859,4.9842,4.9859,4.9853,4.985,4.9857,4.9838,4.9846,4.9828,4.9834,4.9824,4.9839,4.9839,4.9835,4.9832,4.9836,4.9837,4.9838,4.9835,4.9824,4.9824,4.9824,4.9823,0,4.9887,4.9875,4.989,4.9881,4.9879,4.9892,4.9884,4.9892,4.9884,4.9894,4.9896,4.9883,4.9889,4.9876,4.988,4.9873,4.9895,4.9887,4.9896,4.9894,4.9914,4.9912,4.9979,4.9987,4.9921,4.9922,4.9922,0,4.9917,4.9928,4.992,4.9924,4.9922,4.9929,4.9932,4.9916,4.9919,4.9917,4.9926,4.993,4.9933,4.9944,4.9935,4.9939,4.9932,4.9955,4.9932,4.9937,4.9932,4.9932,4.9933,4.9959,4.996,4.9961,4.9961,0,4.997,4.9964,4.9969,4.9971,4.9975,4.9976,4.9976,4.9981,4.9964,4.9969,4.9975,4.9978,4.9983,4.9988,4.9989,4.9986,4.9971,4.9969,4.9973,4.9978,4.9983,4.9981,4.9909,4.9967,4.9967,4.9966,4.9966,4.9966,5.0011,5.0021,5.0017,5.0023,5.0021,5.0022,5.003,5.0023,5.0028,5.0031,5.0021,5.003,5.0027,5.0028,5.0026,5.0033,5.0022,5.0029,5.003,5.0032,5.0036,4.9982,5.0033,5.0033,5.0032,5.0032,5.0032,0,5.0065,5.0061,5.0067,5.0068,5.0073,5.0059,5.0058,5.0063,5.0071,5.0069,5.0073,5.0081,5.0086,5.0078,5.0082,5.0089,5.0082,5.009,5.009,5.0089,5.0045,5.004,5.0096,5.0096,5.0096,5.0096,5.0096,5.0096,5.0093,5.0108,5.0102,5.0116,5.0113,5.0121,5.0122,5.0123,5.0122,5.0131,5.0136,5.0131,5.0126,5.013,5.0134,5.0132,5.0134,5.0145,5.014,5.0099,5.0092,5.0086,5.0082,5.0146,5.0146,5.0184,5.0185,5.0185]}]]